Home   Weather   Itzehoe   Past weeks

Flag for Germany Past Weather in Itzehoe, Schleswig-Holstein, Germany — Yesterday and Last 2 Weeks

Now
32 °F

Ice fog.


Feels Like: 26 °F
Forecast: 32 / 37 °F
Wind: 7 mph from Southwest

Location: Hohn

Current Time: Jan 23, 2017 at 1:58:18 pm

Latest Report: Jan 23, 2017 at 12:20 pm


Visibility: 2 mi

Pressure: 30.27 "Hg

Humidity: 93%

Dew Point: 30 °F

Location of ItzehoeLocation

Past Weather in Itzehoe — Graph

°F

Itzehoe Temperature Yesterday

Maximum temperature yesterday: 36 °F (at 12:20 am)
Minimum temperature yesterday: 30 °F (at 10:20 pm)
Average temperature yesterday: 34 °F

High & Low Weather Summary for the Past Weeks

 TemperatureHumidityPressure
High46 °F (Jan 11, 1:20 pm)100% (Jan 13, 3:20 am)30.72 "Hg (Jan 13, 3:20 am)
Low18 °F (Jan 16, 8:20 am)56% (Jan 15, 3:20 pm)29.15 "Hg (Jan 13, 4:20 am)
Average34 °F87%30.09 "Hg
* Reported Jan 8 12:20 pm — Jan 23 12:20 pm, Itzehoe, Weather by CustomWeather, © 2017

Note: Actual official high and low records may vary slightly from our data, if they occured in-between our weather recording intervals... More about our weather records

Advertising

Itzehoe Weather History for the Previous 24 Hours

Scroll right to see more
 ConditionsComfort  
Time TempWeatherWind HumidityBarometerVisibility
12:20 pm
Mon, Jan 23
32 °FIce fog.7 mph93%30.27 "Hg1 mi
11:57 am32 °FIce fog.7 mph87%30.27 "Hg2 mi
11:20 am32 °FIce fog.7 mph87%30.27 "Hg2 mi
11:05 am32 °FIce fog.5 mph87%30.27 "Hg2 mi
10:20 am32 °FIce fog.5 mph87%30.27 "Hg2 mi
9:50 am30 °FIce fog.3 mph93%30.27 "Hg2 mi
9:20 am30 °FIce fog.5 mph93%30.27 "Hg2 mi
8:20 am30 °FIce fog.3 mph93%30.27 "Hg2 mi
7:20 am30 °FPartly cloudy.3 mph93%30.27 "Hg4 mi
6:20 am30 °FPassing clouds.2 mph86%30.27 "Hg4 mi
5:20 am30 °FIce fog.8 mph93%30.27 "Hg3 mi
4:20 am30 °FIce fog.3 mph93%30.27 "Hg3 mi
3:20 am30 °FIce fog.3 mph93%30.30 "Hg2 mi
2:20 am30 °FIce fog.6 mph93%30.30 "Hg2 mi
1:20 am30 °FIce fog.3 mph93%30.30 "Hg2 mi
12:20 am30 °FIce fog.2 mph93%30.30 "Hg2 mi
11:20 pm
Sun, Jan 22
30 °FIce fog.2 mph93%30.30 "Hg3 mi
10:20 pm30 °FLow clouds.2 mph93%30.30 "Hg4 mi
9:20 pm32 °FLow clouds.3 mph87%30.30 "Hg4 mi
8:20 pm32 °FIce fog.3 mph87%30.30 "Hg3 mi
7:20 pm32 °FIce fog.2 mph87%30.33 "Hg3 mi
6:20 pm32 °FIce fog.3 mph87%30.33 "Hg3 mi
5:20 pm32 °FIce fog.3 mph93%30.33 "Hg3 mi
4:20 pm32 °FIce fog.2 mph93%30.33 "Hg2 mi
3:32 pm32 °FIce fog.1 mph93%30.33 "Hg2 mi
2:20 pm34 °FFog.2 mph87%30.33 "Hg2 mi
1:20 pm34 °FFog.3 mph87%30.36 "Hg3 mi
Weather by CustomWeather, © 2017

See weather overviewHow to use our weather pages